Snowfall_Accumulation
0.0 0.0 0.0 0.0 0.0 0.0 0.0 0.0 0.0 0.0 0.0 0.0 0.0 0.0 0.0 0.0 0.0 0.0 0.0 0.0 0.0 0.0 0.0 0.0 0.0 0.0 0.0 0.0 0.0 0.0 0.0 0.0 0.2 0.0 0.0 0.0 0.1 0.1 0.0 0.1 0.1 0.1 0.1
0.0 0.0 0.0 0.0 0.0 0.0 0.0 0.0 0.0 0.0 0.0 0.0 0.0 0.0 0.0 0.0 0.0 0.0 0.0 0.0 0.0 0.0 0.0 0.0 0.0 0.0 0.0 0.0 0.0 0.0 0.0 0.0 0.1 0.1 0.1 0.1 0.1 0.1 0.1 0.2 0.1 0.1 0.5
0.0 0.0 0.0 0.0 0.0 0.0 0.0 0.0 0.0 0.0 0.0 0.0 0.0 0.0 0.0 0.0 0.0 0.0 0.0 0.0 0.0 0.0 0.0 0.0 0.0 0.0 0.1 0.1 0.0 0.0 0.0 0.0 0.0 0.5 0.6 0.5 0.6 0.6 0.8 0.6 0.6 0.7 0.4
0.0 0.0 0.0 0.0 0.0 0.0 0.0 0.0 0.0 0.0 0.0 0.0 0.0 0.0 0.0 0.0 0.0 0.0 0.0 0.0 0.0 0.0 0.0 0.0 0.0 0.0 0.1 0.1 0.1 0.1 0.1 0.5 0.6 0.8 0.9 0.8 0.9 1.2 1.2 1.4 1.8 1.3 1.6
0.0 0.0 0.0 0.0 0.0 0.0 0.0 0.1 0.1 0.1 0.0 0.0 0.0 0.1 0.0 0.0 0.0 0.0 0.0 0.1 0.1 0.0 0.1 0.1 0.1 0.0 nan nan 0.3 0.3 0.3 0.6 1.4 1.7 1.3 1.2 1.3 1.5 1.6 1.1 2.4 2.2 2.4
0.0 0.0 0.0 0.1 0.1 0.1 0.2 0.1 0.1 0.1 0.1 0.1 0.1 0.1 0.1 0.0 nan nan 0.1 0.1 0.1 0.1 0.1 0.1 0.1 0.1 0.1 nan nan nan nan 0.5 4.3 4.6 1.3 1.0 0.5 1.3 1.8 2.1 3.0 3.9 4.0
0.1 0.2 0.2 0.2 0.2 0.2 0.2 0.2 0.2 0.2 0.2 0.2 0.2 0.2 0.2 0.2 nan nan nan 0.2 0.1 0.1 0.1 0.2 0.2 0.2 0.3 0.2 nan nan nan nan nan 0.3 0.9 1.0 1.7 1.4 2.2 3.4 2.3 2.7 3.2
0.2 0.5 0.5 0.3 0.8 0.3 0.3 0.4 0.3 0.2 0.3 0.3 0.3 0.3 0.3 0.2 nan nan nan 0.1 0.1 0.1 0.1 0.2 0.3 0.3 0.4 0.5 0.5 0.8 0.6 0.5 0.4 0.5 0.9 1.3 1.4 1.7 1.7 1.6 2.8 4.2 3.9
0.1 0.2 0.3 0.5 1.4 0.6 2.2 0.7 0.5 1.0 0.8 1.4 1.1 2.4 1.9 1.5 nan nan 0.2 0.5 0.5 0.5 0.2 0.4 0.5 0.6 nan nan 1.6 3.8 2.9 2.3 nan nan nan nan nan nan nan 7.9 18.1 21.1 12.2
0.2 0.2 0.2 0.6 2.6 2.1 0.7 1.5 1.8 1.9 1.9 2.6 2.2 2.1 1.0 3.7 nan nan nan 2.9 4.3 2.8 1.4 0.7 1.0 0.8 nan nan 2.4 4.8 8.2 4.4 4.2 5.3 3.0 1.5 nan nan nan 3.4 7.5 20.0 11.8
0.7 0.8 1.0 0.9 3.2 1.4 1.7 1.2 2.5 3.6 2.2 3.9 3.8 2.7 3.4 2.0 1.9 nan nan 2.1 4.0 5.7 5.3 3.7 2.1 nan nan nan nan 5.2 6.0 4.5 8.0 7.1 6.4 6.1 5.3 4.6 4.2 3.5 2.7 4.4 8.8
1.7 1.9 2.4 4.0 3.3 3.2 7.3 4.2 5.7 5.2 5.8 5.1 5.4 4.3 3.6 2.0 nan nan nan nan nan 8.3 5.0 2.5 2.5 nan nan nan 3.0 nan nan 3.5 10.7 11.3 9.8 8.2 6.1 5.9 5.0 5.0 3.6 3.6 3.4
5.0 7.0 6.9 5.8 6.0 5.9 8.8 6.3 7.1 6.0 7.5 4.7 6.5 6.4 4.9 4.2 4.4 nan nan nan nan 4.4 3.2 2.6 nan nan nan nan nan nan 2.4 8.2 10.8 13.0 10.0 6.9 4.7 4.5 4.1 4.8 3.9 3.8 3.5
9.3 5.2 4.2 5.6 3.9 4.8 5.8 6.3 10.1 8.1 7.3 8.3 9.9 9.7 6.8 6.2 4.0 3.9 6.2 4.1 2.7 5.4 nan 4.3 nan 3.3 nan nan 4.0 3.9 5.7 6.3 6.9 8.2 8.2 5.5 5.3 6.4 6.8 5.1 6.9 6.1 9.7
6.7 3.7 4.3 6.0 6.7 4.6 4.5 6.8 6.5 4.3 8.7 15.9 17.9 13.7 14.5 12.8 8.1 4.1 10.3 10.6 8.9 9.2 7.6 12.5 10.3 6.9 7.0 6.1 7.8 7.4 7.0 7.6 8.9 9.0 9.8 9.2 8.6 8.0 7.8 6.2 6.6 8.5 10.8
4.0 5.8 5.6 5.5 4.5 4.2 4.4 4.8 nan nan nan nan nan 9.5 10.7 nan nan nan nan nan nan nan 18.0 21.1 11.9 9.3 7.4 7.6 9.5 9.6 8.5 7.7 8.6 9.6 10.5 10.3 10.7 8.9 9.1 9.8 9.4 10.4 11.2
7.3 4.9 6.3 4.9 5.4 6.1 6.5 7.5 8.8 6.6 nan nan nan nan nan nan nan nan nan nan nan nan 31.5 18.0 15.1 10.8 10.3 8.6 10.1 9.5 9.5 7.9 5.9 8.9 8.7 9.4 10.3 10.9 10.6 10.0 9.1 8.5 12.2
7.1 2.1 7.7 7.6 7.4 7.8 8.4 8.7 9.1 10.6 11.9 9.9 nan nan nan nan nan nan nan nan 26.9 nan 24.6 24.7 21.7 17.8 14.3 13.1 11.1 10.7 10.8 10.2 9.5 10.4 10.7 14.0 15.4 16.1 14.7 14.2 10.8 13.4 13.1
7.7 6.6 7.3 7.4 7.2 7.6 8.6 7.8 8.5 8.6 8.8 11.0 10.8 11.0 6.0 nan nan nan nan 19.0 24.7 22.7 22.9 23.6 20.3 18.8 15.3 15.9 14.9 16.6 14.7 15.1 14.4 18.8 18.9 19.9 18.0 18.5 18.0 13.1 10.5 6.5 7.5
8.3 3.4 6.4 10.8 10.0 9.0 6.8 8.4 7.8 8.3 9.3 10.4 10.6 9.5 16.0 15.6 22.1 23.1 20.1 26.3 26.4 24.0 21.3 23.3 23.6 25.0 25.1 23.2 22.7 21.1 21.4 22.5 20.7 21.6 21.4 20.3 18.7 19.4 13.5 17.7 15.3 13.0 14.2
14.5 12.3 2.7 10.8 13.1 13.4 13.7 11.7 9.7 12.7 11.2 12.8 9.9 9.3 nan 16.6 18.1 19.8 22.9 21.5 24.6 26.2 21.9 23.6 24.7 30.3 31.0 33.3 28.3 27.3 25.9 17.0 21.0 23.1 24.4 24.4 23.4 27.9 17.2 11.6 16.0 16.9 16.5
15.9 16.3 16.3 17.6 12.9 13.4 15.3 11.0 12.0 12.2 11.7 10.6 8.7 8.9 nan 11.1 13.9 14.5 16.3 20.9 25.3 25.7 28.8 33.1 32.4 34.7 30.8 28.5 26.1 24.2 20.7 24.3 26.2 25.1 21.2 22.3 25.5 22.0 20.9 14.5 15.0 12.9 16.6
14.5 13.1 13.8 13.8 13.4 6.6 14.8 16.8 15.1 14.4 13.3 14.3 12.5 12.9 15.0 17.7 15.6 15.3 22.3 25.3 20.4 19.2 21.3 22.5 20.9 20.8 19.5 22.6 20.0 19.5 21.2 24.1 25.3 31.5 23.0 23.8 23.2 25.9 22.6 19.7 17.0 18.3 16.9
13.7 13.7 13.4 17.1 15.3 13.1 15.4 16.6 14.6 6.3 14.8 15.9 24.5 19.5 11.9 15.7 22.3 16.7 17.7 20.9 17.1 28.2 20.4 21.8 18.0 17.5 19.2 28.5 35.1 34.5 36.8 38.4 37.4 34.6 31.4 22.7 22.8 18.6 19.2 20.9 16.4 14.6 12.9
16.4 14.2 14.4 13.4 19.8 16.2 15.3 18.1 13.2 17.7 20.8 16.2 19.7 14.9 15.8 14.6 15.5 22.0 20.4 16.8 18.6 17.0 14.6 14.5 15.1 15.7 16.0 17.0 23.6 29.6 29.0 4.3 19.5 4.7 28.0 20.5 24.8 25.6 24.3 19.9 18.3 15.3 12.6
13.2 13.8 14.1 14.3 13.9 15.4 16.3 16.0 16.9 13.8 17.4 18.7 17.3 17.5 15.0 14.9 14.9 17.8 16.6 16.6 13.3 13.8 14.1 15.5 15.4 13.4 12.5 14.5 15.5 6.6 4.0 3.5 23.5 4.0 22.8 19.1 22.4 21.6 21.4 21.5 19.8 17.9 14.4
Water_Equivalent
0.00 0.00 0.00 0.00 0.00 0.00 0.00 0.00 0.00 0.00 0.00 0.00 0.00 0.00 0.00 0.00 0.00 0.00 0.00 0.00 0.00 0.00 0.00 0.00 0.00 0.00 0.00 0.00 0.00 0.00 0.00 0.00 0.08 0.00 0.00 0.00 0.02 0.02 0.01 0.02 0.02 0.03 0.03
0.00 0.00 0.00 0.00 0.00 0.00 0.00 0.00 0.00 0.00 0.00 0.00 0.00 0.00 0.00 0.00 0.00 0.00 0.00 0.00 0.00 0.00 0.00 0.00 0.00 0.00 0.01 0.00 0.00 0.00 0.00 0.00 0.03 0.02 0.01 0.02 0.02 0.02 0.03 0.05 0.03 0.02 0.13
0.00 0.00 0.00 0.00 0.00 0.00 0.00 0.00 0.00 0.00 0.00 0.00 0.00 0.00 0.00 0.00 0.00 0.00 0.00 0.00 0.00 0.00 0.00 0.00 0.00 0.01 0.02 0.04 0.01 0.01 0.01 0.01 0.02 0.11 0.12 0.11 0.13 0.15 0.19 0.13 0.13 0.14 0.08
0.00 0.00 0.00 0.00 0.00 0.00 0.00 0.00 0.00 0.00 0.00 0.00 0.00 0.00 0.00 0.00 0.00 0.00 0.00 0.00 0.00 0.00 0.00 0.01 0.01 0.01 0.02 0.02 0.02 0.03 0.03 0.13 0.15 0.19 0.19 0.17 0.18 0.22 0.25 0.23 0.27 0.23 0.30
0.00 0.00 0.00 0.00 0.00 0.00 0.01 0.02 0.02 0.02 0.00 0.00 0.00 0.01 0.01 0.00 0.00 0.01 0.01 0.02 0.02 0.01 0.02 0.02 0.02 0.00 nan nan 0.09 0.07 0.06 0.15 0.33 0.39 0.27 0.22 0.21 0.21 0.22 0.18 0.38 0.37 0.36
0.00 0.00 0.00 0.02 0.03 0.04 0.04 0.03 0.03 0.03 0.02 0.03 0.03 0.03 0.03 0.00 nan nan 0.02 0.02 0.03 0.03 0.03 0.03 0.04 0.04 0.04 nan nan nan nan 0.12 0.79 0.86 0.25 0.19 0.09 0.22 0.29 0.33 0.46 0.53 0.48
0.03 0.05 0.05 0.04 0.05 0.04 0.04 0.04 0.03 0.03 0.03 0.03 0.03 0.03 0.04 0.03 nan nan nan 0.05 0.04 0.02 0.03 0.04 0.05 0.04 0.07 0.05 nan nan nan nan nan 0.06 0.18 0.20 0.30 0.24 0.38 0.50 0.34 0.42 0.50
0.05 0.09 0.08 0.05 0.12 0.05 0.05 0.06 0.04 0.04 0.05 0.04 0.05 0.05 0.05 0.04 nan nan nan 0.03 0.03 0.04 0.04 0.05 0.07 0.08 0.09 0.12 0.12 0.18 0.13 0.12 0.10 0.10 0.20 0.26 0.29 0.32 0.32 0.30 0.45 0.68 0.61
0.03 0.04 0.05 0.08 0.19 0.09 0.28 0.10 0.07 0.14 0.10 0.18 0.16 0.33 0.27 0.24 nan nan 0.06 0.11 0.10 0.10 0.05 0.07 0.10 0.12 nan nan 0.29 0.57 0.46 0.39 nan nan nan nan nan nan nan 1.44 2.62 2.84 1.59
0.03 0.03 0.04 0.09 0.34 0.27 0.10 0.20 0.25 0.26 0.24 0.37 0.30 0.30 0.21 0.52 nan nan nan 0.64 0.69 0.46 0.22 0.12 0.31 0.15 nan nan 0.46 0.73 1.07 0.64 0.72 0.93 0.56 0.32 nan nan nan 0.58 1.21 2.57 1.53
0.11 0.10 0.13 0.12 0.38 0.19 0.23 0.18 0.36 0.44 0.28 0.50 0.49 0.38 0.47 0.34 0.30 nan nan 0.38 0.66 0.89 0.85 0.60 0.38 nan nan nan nan 0.83 0.91 0.77 1.30 1.09 0.99 0.96 0.87 0.78 0.71 0.59 0.44 0.71 1.27
0.21 0.21 0.27 0.47 0.41 0.41 0.87 0.54 0.74 0.67 0.70 0.62 0.66 0.57 0.52 0.29 nan nan nan nan nan 1.41 0.79 0.41 0.42 nan nan nan 0.71 nan nan 0.84 1.77 1.71 1.43 1.15 0.86 0.82 0.70 0.67 0.46 0.46 0.45
0.51 0.73 0.73 0.66 0.69 0.70 1.03 0.68 0.93 0.77 0.90 0.55 0.77 0.75 0.60 0.59 0.65 nan nan nan nan 0.78 0.55 0.41 nan nan nan nan nan nan 0.78 1.36 1.62 1.75 1.23 0.85 0.61 0.56 0.49 0.56 0.46 0.43 0.38
1.01 0.53 0.42 0.57 0.47 0.56 0.74 0.86 1.26 1.00 0.84 0.96 1.13 1.08 0.74 0.70 0.52 0.56 1.05 0.81 0.66 0.92 nan 0.75 nan 0.58 nan nan 0.77 0.69 0.92 0.98 0.99 1.10 0.98 0.68 0.66 0.78 0.80 0.61 0.81 0.72 1.19
0.67 0.35 0.48 0.71 0.82 0.51 0.48 0.80 0.71 0.51 1.04 1.73 2.06 1.48 1.52 1.40 1.00 0.58 1.45 1.61 1.52 1.47 1.32 1.73 1.41 0.95 0.94 0.83 1.05 0.99 0.97 1.06 1.17 1.19 1.14 1.05 0.99 0.94 0.90 0.71 0.76 0.99 1.26
0.37 0.58 0.60 0.61 0.51 0.45 0.46 0.48 nan nan nan nan nan 1.28 1.62 nan nan nan nan nan nan nan 2.66 2.62 1.28 1.02 0.78 0.83 1.03 0.98 0.87 0.90 0.91 1.04 1.14 1.14 1.18 0.98 1.00 1.11 1.08 1.19 1.23
0.76 0.50 0.64 0.53 0.53 0.61 0.65 0.76 0.88 0.71 nan nan nan nan nan nan nan nan nan nan nan nan 4.02 2.01 1.60 1.09 1.01 0.81 0.97 0.89 0.87 0.75 0.55 0.88 0.87 0.98 1.10 1.21 1.23 1.14 1.03 0.97 1.42
0.71 0.68 0.77 0.75 0.73 0.78 0.84 0.88 0.92 1.07 1.22 1.00 nan nan nan nan nan nan nan nan 3.35 nan 2.92 2.85 2.39 1.89 1.40 1.23 1.01 0.94 0.95 0.90 0.84 0.98 1.02 1.48 1.71 1.82 1.67 1.66 1.25 1.60 1.55
0.76 0.65 0.73 0.74 0.73 0.78 0.87 0.76 0.83 0.83 0.86 1.11 1.09 1.14 1.00 nan nan nan nan 2.15 2.88 2.53 2.54 2.61 2.14 1.91 1.47 1.58 1.46 1.68 1.41 1.46 1.39 1.94 1.99 2.18 2.00 2.10 2.10 1.52 1.18 0.96 1.05
0.80 0.83 0.81 1.08 0.96 0.86 0.63 0.78 0.72 0.77 0.86 1.01 1.05 0.94 1.69 1.88 2.52 2.64 2.22 3.10 3.05 2.67 2.29 2.53 2.54 2.77 2.80 2.57 2.50 2.29 2.28 2.40 2.15 2.27 2.24 2.17 2.05 2.23 1.41 2.09 1.80 1.43 1.71
1.39 1.13 0.88 0.97 1.25 1.29 1.34 1.07 0.85 1.19 1.04 1.24 0.96 0.93 nan 1.69 1.87 2.09 2.48 2.25 2.69 2.94 2.35 2.60 2.69 3.52 3.67 4.07 3.29 3.13 2.89 1.70 2.23 2.48 2.67 2.67 2.58 3.26 1.93 1.20 1.86 2.03 1.97
1.46 1.54 1.54 1.66 1.11 1.17 1.40 0.94 1.06 1.08 1.03 0.90 0.71 0.80 nan 1.02 1.30 1.40 1.58 2.18 2.75 2.75 3.16 3.78 3.69 4.08 3.53 3.22 2.86 2.65 2.16 2.66 2.96 2.74 2.16 2.30 2.77 2.39 2.38 1.58 1.68 1.43 2.01
1.24 1.05 1.13 1.13 1.10 1.42 1.28 1.54 1.33 1.28 1.15 1.29 1.13 1.12 1.32 1.74 1.48 1.42 2.30 2.62 1.99 1.83 2.13 2.28 2.12 2.11 1.97 2.36 2.05 1.99 2.16 2.52 2.66 3.62 2.31 2.45 2.37 2.81 2.52 2.20 1.92 2.13 2.03
1.10 1.12 1.10 1.55 1.33 1.06 1.32 1.45 1.21 1.50 1.28 1.42 2.43 1.90 1.04 1.44 2.21 1.51 1.64 2.03 1.62 3.05 2.04 2.23 1.75 1.71 1.95 3.21 4.23 4.14 4.51 4.77 4.49 4.05 3.58 2.26 2.25 1.99 1.91 2.31 1.79 1.72 1.39
1.41 1.16 1.19 1.10 1.84 1.41 1.30 1.63 1.08 1.60 1.95 1.46 1.91 1.31 1.36 1.24 1.39 2.20 2.02 1.60 1.84 1.68 1.41 1.40 1.48 1.55 1.60 1.72 2.54 3.38 3.62 1.42 2.59 1.55 3.06 2.01 2.50 2.57 2.42 2.03 1.89 1.55 1.33
1.10 1.16 1.20 1.24 1.20 1.38 1.49 1.46 1.55 1.19 1.61 1.75 1.59 1.62 1.35 1.35 1.38 1.75 1.60 1.61 1.25 1.32 1.39 1.55 1.55 1.33 1.24 1.45 1.57 1.64 1.32 1.16 2.72 1.32 2.39 1.86 2.20 2.01 1.96 2.00 1.83 1.74 1.40
SL_Ratio
nan nan nan nan nan nan nan nan nan nan nan nan nan nan nan nan nan nan nan nan nan nan nan nan nan nan nan nan nan nan nan 0.0 3.1 nan nan 2.9 2.5 2.5 3.0 3.5 3.4 3.3 3.0
nan nan nan nan nan nan nan nan nan nan nan nan nan nan nan nan nan nan nan nan nan nan nan nan nan nan 3.4 nan nan nan nan 3.3 3.1 3.9 4.5 3.8 3.5 2.8 3.0 3.3 3.3 3.1 3.7
nan nan nan nan nan nan nan nan nan nan nan nan nan nan nan nan nan nan nan nan nan nan nan nan 0.0 3.5 3.4 3.3 2.6 2.7 3.1 2.4 2.9 4.3 4.7 4.6 4.5 3.9 4.2 4.3 4.5 4.7 4.4
nan nan nan nan nan nan nan nan nan nan nan nan nan nan nan 2.0 3.3 2.9 3.3 0.0 nan nan 0.0 3.6 3.6 3.2 3.3 3.2 3.3 3.0 3.2 3.9 4.1 4.1 4.5 4.7 5.0 5.5 4.9 5.9 6.4 5.7 5.5
nan nan nan nan nan 2.5 3.3 3.3 3.5 3.7 nan 0.0 0.0 4.1 3.2 3.3 5.0 3.4 3.3 3.2 3.2 3.4 3.3 3.2 3.1 2.5 nan nan 3.7 3.9 4.0 4.0 4.2 4.5 4.9 5.5 6.1 7.0 7.2 6.1 6.2 5.9 6.6
nan 10.0 5.0 3.6 3.9 4.0 4.0 4.1 4.3 4.6 4.5 4.9 5.3 5.4 5.3 2.0 nan nan 3.2 3.3 3.3 3.1 3.3 3.5 3.5 3.6 3.4 nan nan nan nan 4.4 5.4 5.3 5.1 5.6 5.5 5.8 6.0 6.5 6.5 7.4 8.3
4.2 4.6 4.6 4.8 5.0 4.7 4.8 5.3 5.7 5.5 5.2 5.7 5.7 5.6 5.9 5.1 nan nan nan 3.6 3.6 3.3 3.3 3.6 3.7 3.7 4.0 3.7 nan nan nan nan nan 4.4 5.2 5.2 5.8 5.6 5.8 6.9 6.8 6.4 6.3
4.9 5.6 5.9 5.8 6.4 6.3 6.4 6.4 6.1 5.7 6.1 6.3 6.2 6.0 5.8 5.5 nan nan nan 3.6 3.8 3.6 3.5 3.7 3.9 4.1 4.2 3.9 3.9 4.5 4.2 4.2 4.2 4.5 4.6 4.9 5.0 5.2 5.4 5.6 6.1 6.2 6.4
5.0 5.4 5.8 6.3 7.0 6.9 7.9 7.0 7.0 7.2 7.3 7.5 6.8 7.1 6.8 6.1 nan nan 3.7 4.6 4.9 5.0 4.5 4.8 4.8 5.0 nan nan 5.6 6.8 6.4 5.8 nan nan nan nan nan nan nan 5.5 6.9 7.4 7.7
5.4 5.3 5.9 6.5 7.8 8.0 7.1 7.6 7.1 7.1 8.0 7.1 7.4 7.0 4.5 7.2 nan nan nan 4.5 6.2 6.0 6.1 5.4 3.2 5.0 nan nan 5.3 6.6 7.7 6.9 5.9 5.7 5.3 4.8 nan nan nan 6.0 6.1 7.8 7.7
7.0 7.6 7.9 7.6 8.2 7.4 7.1 6.7 7.1 8.0 7.8 7.8 7.9 7.2 7.2 5.9 6.3 nan nan 5.5 6.1 6.4 6.2 6.1 5.7 nan nan nan nan 6.3 6.6 5.8 6.2 6.5 6.4 6.4 6.1 6.0 5.9 6.0 6.2 6.2 6.9
8.0 8.9 8.8 8.5 8.0 7.9 8.4 7.8 7.6 7.8 8.3 8.3 8.3 7.5 6.9 6.9 nan nan nan nan nan 5.9 6.4 6.2 6.0 nan nan nan 4.2 nan nan 4.2 6.0 6.6 6.8 7.1 7.2 7.2 7.1 7.3 7.8 7.7 7.5
9.7 9.5 9.5 8.8 8.7 8.4 8.5 9.3 7.7 7.8 8.3 8.6 8.4 8.5 8.3 7.2 6.7 nan nan nan nan 5.7 5.7 6.2 nan nan nan nan nan nan 3.0 6.0 6.6 7.4 8.1 8.1 7.8 8.0 8.2 8.5 8.6 8.9 9.3
9.2 9.7 10.0 9.8 8.2 8.6 7.8 7.3 8.0 8.2 8.7 8.7 8.8 9.0 9.2 9.0 7.8 6.9 6.0 5.1 4.1 5.9 nan 5.7 nan 5.6 nan nan 5.2 5.7 6.3 6.5 7.0 7.5 8.4 8.2 8.1 8.3 8.5 8.4 8.6 8.4 8.2
9.9 10.6 8.8 8.4 8.2 9.1 9.3 8.5 9.2 8.4 8.4 9.2 8.7 9.2 9.5 9.1 8.1 7.2 7.1 6.6 5.9 6.3 5.8 7.2 7.3 7.3 7.5 7.4 7.5 7.5 7.2 7.2 7.6 7.6 8.6 8.8 8.6 8.5 8.6 8.6 8.7 8.5 8.6
10.7 10.0 9.4 8.9 8.8 9.3 9.7 9.9 nan nan nan nan nan 7.4 6.6 nan nan nan nan nan nan nan 6.8 8.1 9.3 9.1 9.6 9.2 9.1 9.7 9.7 8.6 9.5 9.2 9.2 9.0 9.1 9.1 9.1 8.9 8.6 8.7 9.1
9.5 9.9 9.9 9.3 10.3 10.1 9.9 9.9 9.9 9.3 nan nan nan nan nan nan nan nan nan nan nan nan 7.8 9.0 9.4 9.9 10.2 10.6 10.4 10.6 10.9 10.5 10.7 10.1 10.0 9.6 9.4 9.0 8.6 8.7 8.8 8.8 8.6
9.9 3.0 10.0 10.1 10.1 10.1 10.0 10.0 9.9 9.9 9.8 9.9 nan nan nan nan nan nan nan nan 8.0 nan 8.4 8.7 9.1 9.4 10.2 10.6 11.0 11.3 11.4 11.3 11.3 10.6 10.4 9.4 9.0 8.9 8.8 8.5 8.6 8.4 8.4
10.1 10.2 10.0 10.0 9.9 9.8 9.9 10.3 10.2 10.3 10.3 9.9 9.9 9.7 6.0 nan nan nan nan 8.9 8.6 9.0 9.0 9.0 9.5 9.8 10.4 10.1 10.2 9.9 10.4 10.3 10.3 9.7 9.5 9.2 9.0 8.8 8.6 8.6 8.9 6.7 7.1
10.3 4.1 7.9 10.1 10.4 10.5 10.8 10.7 10.9 10.8 10.9 10.3 10.1 10.1 9.4 8.3 8.8 8.7 9.1 8.5 8.6 9.0 9.3 9.2 9.3 9.0 9.0 9.0 9.1 9.2 9.4 9.3 9.6 9.5 9.6 9.4 9.1 8.7 9.6 8.5 8.5 9.0 8.3
10.5 10.8 3.0 11.1 10.5 10.3 10.3 10.9 11.4 10.7 10.8 10.3 10.4 10.1 nan 9.8 9.7 9.5 9.2 9.5 9.2 8.9 9.3 9.1 9.2 8.6 8.4 8.2 8.6 8.7 9.0 10.0 9.4 9.3 9.2 9.1 9.1 8.5 8.9 9.7 8.6 8.3 8.4
10.8 10.6 10.6 10.6 11.6 11.5 10.9 11.7 11.4 11.3 11.4 11.8 12.3 11.1 nan 10.9 10.6 10.4 10.3 9.6 9.2 9.3 9.1 8.8 8.8 8.5 8.7 8.8 9.1 9.1 9.6 9.1 8.9 9.2 9.8 9.7 9.2 9.2 8.7 9.2 8.9 9.0 8.3
11.7 12.5 12.1 12.2 12.2 4.7 11.6 10.9 11.3 11.3 11.6 11.0 11.1 11.6 11.4 10.2 10.5 10.8 9.7 9.6 10.2 10.5 10.0 9.8 9.8 9.9 9.9 9.6 9.7 9.8 9.8 9.6 9.5 8.7 10.0 9.7 9.8 9.2 9.0 9.0 8.9 8.6 8.3
12.5 12.2 12.1 11.1 11.5 12.4 11.6 11.5 12.0 4.2 11.5 11.2 10.1 10.3 11.5 10.9 10.1 11.0 10.8 10.3 10.6 9.3 10.0 9.8 10.3 10.3 9.8 8.9 8.3 8.3 8.2 8.1 8.3 8.5 8.8 10.1 10.1 9.4 10.0 9.1 9.1 8.5 9.2
11.7 12.3 12.1 12.2 10.7 11.5 11.8 11.1 12.2 11.1 10.7 11.1 10.3 11.3 11.6 11.8 11.1 10.0 10.1 10.5 10.1 10.1 10.4 10.4 10.2 10.1 10.0 9.9 9.3 8.8 8.0 3.0 7.5 3.0 9.2 10.2 9.9 10.0 10.0 9.8 9.6 9.9 9.5
12.1 11.9 11.7 11.5 11.6 11.2 10.9 11.0 10.9 11.6 10.8 10.7 10.9 10.8 11.1 11.1 10.9 10.2 10.3 10.3 10.6 10.5 10.2 10.0 10.0 10.1 10.1 10.0 9.9 4.1 3.0 3.0 8.6 3.0 9.5 10.3 10.2 10.8 10.9 10.7 10.8 10.3 10.3